Regional Weather Roundup
Issued by NWS

Home | Current Version | Previous Version | Graphics & Text | Print | Product List | Glossary On
Versions: 1 2 3 4 5 6 7 8 9 10 11 12 13 14 15 16 17 18 19 20 21 22 23 24 25 26 27 28 29 30 31 32 33 34 35 36 37 38 39 40 41 42 43 44 45 46 47 48 49 50
000
ASUS43 KLOT 222103
RWRIL

ILLINOIS REGIONAL WEATHER ROUNDUP
NATIONAL WEATHER SERVICE CHICAGO/ROMEOVILLE IL
300 PM CST THU FEB 22 2018

NOTE: "FAIR" INDICATES FEW OR NO CLOUDS BELOW 12,000 FEET WITH NO
SIGNIFICANT WEATHER AND/OR OBSTRUCTIONS TO VISIBILITY.

* THESE STATIONS ARE NOT UNDER NWS QUALITY CONTROL. THEY ALSO MAY NOT
  REPORT WEATHER SUCH AS PRECIPITATION OR FOG.

ILZ001-002-007-009-015-016-024-222200-
NORTHWEST ILLINOIS

CITY           SKY/WX    TMP DP  RH WIND       PRES   REMARKS
MOLINE         CLOUDY    39  32  76 E10       30.37R WCI  32
STERLING*      CLOUDY    39  33  79 E16       30.37  WCI  30
SAVANNA*       CLOUDY    37  30  75 E10       30.40R WCI  30
$$

ILZ003-004-008-010-011-017-018-222200-
NORTH CENTRAL ILLINOIS

CITY           SKY/WX    TMP DP  RH WIND       PRES   REMARKS
ROCKFORD       CLOUDY    39  29  67 E13       30.40F WCI  31
FREEPORT*      CLOUDY    35  29  79 E17       30.40S WCI  24
ROCHELLE*      CLOUDY    39  33  76 E13G18    30.38F WCI  32
DE KALB*       CLOUDY    40  32  74 E15       30.38F
PERU*          CLOUDY    41  35  79 E14G21    30.35F
$$

ILZ005-006-012>014-019>023-222200-
NORTHEAST ILLINOIS

CITY           SKY/WX    TMP DP  RH WIND       PRES   REMARKS
CHICAGO-OHARE  CLOUDY    38  28  67 E16       30.43F WCI  29
CHICAGO-MIDWAY CLOUDY    39  30  70 NE17      30.44F WCI  30
AURORA         CLOUDY    41  33  73 E15       30.39S
LANSING*       CLOUDY    39  34  81 NE9       30.42F WCI  33
JOLIET*        CLOUDY    42  34  72 E14       30.41R
WAUKEGAN       CLOUDY    35  30  82 NE12      30.46F WCI  27
DUPAGE AIRPORT CLOUDY    38  31  76 E15       30.41F WCI  29
KANKAKEE*      CLOUDY    44  38  79 E13G20    30.40S
WHEELING       CLOUDY    37  29  72 E10       30.46F WCI  30
MORRIS*        CLOUDY    42  35  77 E14G20    30.38S
ROMEOVILLE*    CLOUDY    40  32  75 NE13      30.42R
NORTHERLY ISL    N/A     35  30  82 NE16        N/A  WCI  25
$$

LMZ740>746-222200-
SOUTHERN LAKE MICHIGAN

STATION/POSITION SKY/WX   TEMP    WIND        PRES    VSBY  WAVE
                          AIR SEA DIR/SP/G                  HT/PER
                          (F)     (DEG/KT/KT) (MB)    (MI)  (FT/S)
HARRISON CRIB              35      50/ 17/ 18   N/A
BURNHAM HARBOR             35      50/ 12/ 15   N/A
CALUMET HARBOR             35      20/ 12/ 16 1029.9F
BURNS HARBOR               41     100/ 10/ 17 1030.5F
MICHIGAN CITY              42      90/ 12/ 14   N/A
$$

ILZ025>027-034>036-040-047-049-050-058-095>099-222200-
WEST-CENTRAL ILLINOIS

CITY           SKY/WX    TMP DP  RH WIND       PRES   REMARKS
QUINCY         FOG       35  35 100 CALM      30.36R VSB 3/4
GALESBURG*     CLOUDY    38  38 100 E5        30.37R FOG     WCI  34
MACOMB*        FOG       37  37  99 NE3       30.38R VSB 3/4
JACKSONVILLE*  CLOUDY    41  40  94 CALM      30.34R FOG
PITTSFIELD*    FOG       37  37 100 W6        30.36R VSB 1/2 WCI  32
$$

ILZ028>032-037-038-041>044-048-051>054-059>061-222200-
CENTRAL ILLINOIS

CITY           SKY/WX    TMP DP  RH WIND       PRES   REMARKS
PONTIAC        CLOUDY    44  43  98 E18       30.36F
BLOOMINGTON    CLOUDY    42  41  96 E15G23    30.32F
DECATUR        CLOUDY    43  41  93 E15       30.31R
PEORIA         CLOUDY    41  39  93 E9        30.32F FOG
LACON*         CLOUDY    40  39  98 E10       30.33S FOG
LINCOLN*       CLOUDY    44  42  95 E16       30.31F
SPRINGFIELD    CLOUDY    44  41  89 E8        30.30F
TAYLORVILLE    CLOUDY    44  41  90 E12       30.29F
$$

ILZ033-039-045-046-055>057-062-063-222200-
EAST-CENTRAL ILLINOIS

CITY           SKY/WX    TMP DP  RH WIND       PRES   REMARKS
CHAMPAIGN      CLOUDY    44  42  93 E16       30.34R
DANVILLE*      CLOUDY    44  41  89 E14G21    30.31F
RANTOUL*       CLOUDY    46  43  90 E15G25    30.35R
MATTOON        CLOUDY    44  41  89 E13       30.30F
PARIS*         CLOUDY    44  40  87 E10       30.35S
$$

ILZ079-100>102-222200-
SOUTHWEST ILLINOIS

CITY           SKY/WX    TMP DP  RH WIND       PRES   REMARKS
ALTON          CLOUDY    43  43 100 SE5       30.31R FOG
BELLEVILLE     CLOUDY    46  43  89 S8        30.31R
CAHOKIA*       CLOUDY    44  42  93 S3          N/A
SPARTA*        CLOUDY    45  45 100 SE3       30.31R
$$

ILZ064>066-069>071-074>076-080>082-084>086-088>090-092>094-222200-
SOUTH-CENTRAL ILLINOIS

CITY           SKY/WX    TMP DP  RH WIND       PRES   REMARKS
CARBONDALE     CLOUDY    46  45  96 SE7       30.30F
CAIRO*         CLOUDY    49  46  92 S3        30.31S
EFFINGHAM*     CLOUDY    46  46  99 E8        30.32F
MARION         CLOUDY    46  46 100 SE6       30.31F
MT. VERNON     CLOUDY    47  45  93 SE8       30.30F
CENTRALIA*     CLOUDY    47  46  94 SE9       30.28F
SALEM*         CLOUDY    48  45  88 E6        30.29F FOG
METROPOLIS*    CLOUDY    50  46  87 E3        30.31F
$$

ILZ067-068-072-073-078-083-087-091-222200-
SOUTHEAST ILLINOIS

CITY           SKY/WX    TMP DP  RH WIND       PRES   REMARKS
LAWRENCEVILLE  CLOUDY    48  46  93 E13       30.33F FOG
FLORA*         CLOUDY    48  46  93 SE12      30.30F
FAIRFIELD*     CLOUDY    47  46  97 CALM      30.30F
HARRISBURG*    CLOUDY    48  47  95 SE8       30.32S
ROBINSON*      CLOUDY    46  44  95 E12       30.34F
CARMI*         CLOUDY    48  47  95 E7        30.31F
$$

ABBREVIATIONS USED IN REMARKS
   TC - TEMPERATURE IN CELSIUS
  WCI - WIND CHILL INDEX
   HX - HEAT INDEX
  VSB - VISIBILITY
$$





USA.gov is the U.S. government's official web portal to all federal, state and local government web resources and services.